Waarnemingen

Advertentie
Mijn weer
Chievres, België (6432): temperatuur & dauwpunt: 08.08.2018 15:00:00 - 14.08.2018 15:00:00 (CEST)Chievres, België (6432): windsnelheid & windstoten: 08.08.2018 15:00:00 - 14.08.2018 15:00:00 (CEST)Chievres, België (6432): windrichting: 08.08.2018 15:00:00 - 14.08.2018 15:00:00 (CEST)Chievres, België (6432): luchtdruk: 08.08.2018 15:00:00 - 14.08.2018 15:00:00 (CEST)Chievres, België (6432): zicht: 08.08.2018 15:00:00 - 14.08.2018 15:00:00 (CEST)
Datum & Tijd tt [°C] td [°C] ff [km/u] ff [kn] fx [km/u] fx [kn] dd ppp [hPa] vv [km]
14.08.2018 15:00:00 22,0 14,5 18 10 25 14 W 1017,3 20
14.08.2018 14:00:00 22,0 14,3 18 10 - - W 1017,1 20
14.08.2018 13:00:00 21,7 16,0 11 6 22 12 W 1016,7 16
14.08.2018 12:00:00 19,7 16,2 14 8 22 12 W 1016,7 9
14.08.2018 11:00:00 19,5 16,1 11 6 - - W 1016,2 16
14.08.2018 10:00:00 18,6 16,8 11 6 14 8 WZW 1015,8 9
14.08.2018 09:00:00 17,7 16,5 7 4 14 8 WZW 1015,3 9
14.08.2018 08:00:00 17,0 16,1 11 6 - - ZW 1014,6 8
14.08.2018 07:00:00 16,5 15,7 7 4 14 8 ZW 1013,7 9
14.08.2018 06:00:00 16,3 15,5 11 6 22 12 ZW 1013,2 10
14.08.2018 05:00:00 16,1 15,2 14 8 - - ZW 1012,8 13
14.08.2018 04:00:00 15,7 15,0 14 8 18 10 ZW 1012,6 16
14.08.2018 03:00:00 15,1 14,4 11 6 18 10 ZZW 1012,2 17
14.08.2018 02:00:00 15,8 14,4 14 8 - - ZW 1012,0 20
14.08.2018 01:00:00 15,8 14,2 11 6 14 8 ZW 1011,6 20
14.08.2018 00:00:00 15,8 13,9 11 6 18 10 ZW 1011,2 20
13.08.2018 23:00:00 17,3 14,1 11 6 - - WZW 1010,7 20
13.08.2018 22:00:00 18,2 14,6 14 8 22 12 WZW 1010,5 20
13.08.2018 21:00:00 19,0 14,5 14 8 36 19 W 1009,7 20
13.08.2018 20:00:00 20,7 14,3 25 14 - - W 1008,8 20
13.08.2018 19:00:00 20,1 15,9 4 2 18 10 N 1008,5 20
13.08.2018 18:00:00 19,3 16,0 14 8 36 19 WNW 1008,6 20
13.08.2018 17:00:00 21,5 14,2 18 10 - - W 1007,8 20
13.08.2018 16:00:00 21,6 13,8 25 14 40 21 WZW 1007,7 20
13.08.2018 15:00:00 21,7 15,1 18 10 32 18 WZW 1007,7 20
13.08.2018 14:00:00 19,5 17,3 18 10 - - ZW 1007,7 20
13.08.2018 13:00:00 18,6 15,8 11 6 32 18 W 1007,7 20
13.08.2018 12:00:00 20,7 16,1 18 10 29 16 WZW 1007,5 20
13.08.2018 11:00:00 18,8 16,0 11 6 - - WZW 1007,3 20
13.08.2018 10:00:00 17,8 16,9 14 8 32 18 ZW 1007,2 20
13.08.2018 09:00:00 17,7 16,9 14 8 18 10 ZW 1007,2 20
13.08.2018 08:00:00 17,6 17,0 9 5 - - ZZW 1007,0 10
13.08.2018 07:00:00 17,1 16,8 4 2 11 6 N 1007,0 9
13.08.2018 06:00:00 17,1 16,6 7 4 18 10 Z 1007,2 15
13.08.2018 05:00:00 17,2 16,4 7 4 - - ZZO 1006,8 20
13.08.2018 04:00:00 17,1 16,6 7 4 14 8 ZZO 1007,2 16
13.08.2018 03:00:00 17,1 16,7 4 2 7 4 - 1007,7 7
13.08.2018 02:00:00 18,0 16,2 4 2 - - N 1009,2 17
13.08.2018 01:00:00 20,8 14,4 14 8 22 12 W 1009,1 20
13.08.2018 00:00:00 21,1 13,4 4 2 14 8 N 1008,7 20
12.08.2018 23:00:00 21,2 14,0 4 2 - - N 1008,8 20
12.08.2018 22:00:00 22,2 13,7 4 2 7 4 N 1009,0 20
12.08.2018 21:00:00 24,0 11,9 4 2 11 6 N 1009,2 20
12.08.2018 20:00:00 25,4 10,5 7 4 - - ZZO 1009,6 20
12.08.2018 19:00:00 26,2 10,0 18 10 29 16 Z 1010,2 20
12.08.2018 18:00:00 26,8 10,1 14 8 29 16 ZZW 1010,7 20
12.08.2018 17:00:00 27,4 10,2 18 10 - - Z 1011,5 20
12.08.2018 16:00:00 27,1 9,5 18 10 32 18 Z 1012,3 20
12.08.2018 15:00:00 26,9 9,8 18 10 32 18 ZZW 1013,1 20
12.08.2018 14:00:00 25,8 9,1 18 10 - - ZZW 1014,0 20
12.08.2018 13:00:00 25,4 9,6 22 12 32 18 ZZW 1014,8 20
12.08.2018 12:00:00 24,6 8,9 22 12 32 18 ZZW 1015,5 20
12.08.2018 11:00:00 22,7 8,7 22 12 - - Z 1015,8 20
12.08.2018 10:00:00 21,3 8,2 18 10 25 14 Z 1016,3 20
12.08.2018 09:00:00 18,7 8,9 11 6 18 10 Z 1017,1 20
12.08.2018 08:00:00 16,2 8,3 11 6 - - Z 1017,2 15
12.08.2018 07:00:00 15,2 8,2 11 6 18 10 Z 1017,7 20
12.08.2018 06:00:00 15,2 8,5 11 6 18 10 Z 1017,7 20
12.08.2018 05:00:00 15,2 8,8 11 6 - - ZZO 1018,3 20
12.08.2018 04:00:00 15,1 8,5 11 6 14 8 ZZO 1019,2 20
12.08.2018 03:00:00 14,5 8,5 4 2 11 6 N 1019,7 20
12.08.2018 02:00:00 14,0 9,2 4 2 - - N 1020,6 20
12.08.2018 01:00:00 13,3 9,9 4 2 4 2 N 1021,2 20
12.08.2018 00:00:00 14,1 10,0 4 2 4 2 N 1021,6 20
11.08.2018 23:00:00 15,0 9,8 4 2 - - N 1022,0 20
11.08.2018 22:00:00 16,1 9,8 4 2 7 4 N 1022,2 20
11.08.2018 21:00:00 18,0 8,2 4 2 11 6 N 1022,2 20
11.08.2018 20:00:00 20,7 8,5 7 4 - - W 1022,1 20
11.08.2018 19:00:00 21,9 7,9 11 6 25 14 WZW 1022,5 20
11.08.2018 18:00:00 22,1 7,4 11 6 29 16 WZW 1022,7 20
11.08.2018 17:00:00 21,8 6,8 14 8 - - W 1023,1 20
11.08.2018 16:00:00 21,1 7,4 11 6 25 14 W 1023,6 20
11.08.2018 15:00:00 21,2 7,4 14 8 25 14 WZW 1024,0 20
11.08.2018 14:00:00 20,4 8,5 11 6 - - W 1024,2 20
11.08.2018 13:00:00 19,1 7,9 11 6 25 14 W 1024,5 20
11.08.2018 12:00:00 17,8 7,7 14 8 22 12 W 1024,7 20
11.08.2018 11:00:00 17,9 9,6 11 6 - - WZW 1024,7 20
11.08.2018 10:00:00 16,6 12,0 11 6 18 10 WZW 1024,7 20
11.08.2018 09:00:00 15,1 13,0 11 6 14 8 WZW 1024,4 20
11.08.2018 08:00:00 13,6 13,0 11 6 - - ZW 1024,0 14
11.08.2018 07:00:00 11,6 11,4 7 4 11 6 ZZW 1023,5 4,5
11.08.2018 06:00:00 12,3 12,0 7 4 11 6 ZW 1023,0 8
11.08.2018 05:00:00 13,3 13,0 7 4 - - ZW 1022,5 14
11.08.2018 04:00:00 13,2 12,6 11 6 18 10 ZW 1022,2 19
11.08.2018 03:00:00 13,0 12,0 11 6 18 10 ZW 1022,2 20
11.08.2018 02:00:00 13,9 11,4 14 8 - - WZW 1022,3 20
11.08.2018 01:00:00 15,5 13,7 18 10 36 19 WZW 1022,2 17
11.08.2018 00:00:00 15,7 13,6 18 10 36 19 WZW 1021,7 16
10.08.2018 23:00:00 16,8 12,7 11 6 - - W 1021,2 20
10.08.2018 22:00:00 19,1 10,0 25 14 40 21 ZW 1021,0 20
10.08.2018 21:00:00 19,7 8,8 18 10 36 19 ZW 1020,7 20
10.08.2018 20:00:00 20,5 7,5 25 14 - - ZZW 1020,6 20
10.08.2018 19:00:00 21,1 7,1 25 14 47 25 ZW 1020,7 20
10.08.2018 18:00:00 21,4 6,6 29 16 47 25 ZW 1021,1 20
10.08.2018 17:00:00 21,9 6,5 32 18 - - ZW 1021,2 20
10.08.2018 16:00:00 21,9 7,5 32 18 47 25 ZZW 1021,7 20
10.08.2018 15:00:00 21,1 8,1 29 16 50 27 ZW 1022,0 20
10.08.2018 14:00:00 19,6 9,6 25 14 - - ZW 1022,3 20
10.08.2018 13:00:00 18,8 9,8 29 16 40 21 ZZW 1022,7 20
10.08.2018 12:00:00 18,2 10,1 25 14 36 19 ZW 1022,7 20
10.08.2018 11:00:00 17,0 10,6 22 12 - - ZW 1022,7 20
10.08.2018 10:00:00 16,4 12,6 22 12 36 19 ZW 1022,6 20
10.08.2018 09:00:00 14,9 12,0 22 12 29 16 ZZW 1022,2 20
10.08.2018 08:00:00 13,6 11,5 18 10 - - ZZW 1022,0 20
10.08.2018 07:00:00 12,3 10,9 14 8 22 12 ZZW 1021,5 20
10.08.2018 06:00:00 12,1 10,9 14 8 25 14 ZZW 1021,0 19
10.08.2018 05:00:00 12,5 11,1 18 10 - - ZZW 1020,7 20
10.08.2018 04:00:00 12,6 11,4 14 8 22 12 ZZW 1020,5 18
10.08.2018 03:00:00 12,8 11,7 11 6 18 10 ZW 1020,2 20
10.08.2018 02:00:00 13,5 12,6 11 6 - - ZZW 1019,7 19
10.08.2018 01:00:00 13,0 12,4 11 6 22 12 ZW 1019,6 17
10.08.2018 00:00:00 13,7 12,8 14 8 25 14 ZW 1018,6 20
09.08.2018 23:00:00 14,5 13,2 18 10 - - WZW 1017,7 20
09.08.2018 22:00:00 14,5 13,5 18 10 40 21 WZW 1016,7 20
09.08.2018 21:00:00 14,6 13,9 22 12 36 19 WZW 1015,2 14
09.08.2018 20:00:00 15,0 13,1 29 16 - - W 1013,3 20
09.08.2018 19:00:00 16,2 15,4 32 18 50 27 WZW 1011,7 3,3
09.08.2018 18:00:00 18,2 16,5 25 14 43 23 ZW 1010,2 12
09.08.2018 17:00:00 18,2 16,5 25 14 - - WZW 1008,6 16
09.08.2018 16:00:00 20,2 19,2 22 12 36 19 ZW 1007,5 9
09.08.2018 15:00:00 20,6 19,7 7 4 14 8 ZZO 1007,2 9
09.08.2018 14:00:00 18,8 18,3 7 4 - - O 1007,8 6
09.08.2018 13:00:00 18,0 17,6 8 4 14 8 ONO 1008,0 4,4
09.08.2018 12:00:00 16,9 16,8 11 6 18 10 O 1009,1 5
09.08.2018 11:00:00 19,1 15,2 11 6 - - ONO 1009,7 15
09.08.2018 10:00:00 17,6 14,8 11 6 22 12 N 1010,5 20
09.08.2018 09:00:00 16,8 13,5 11 6 14 8 ONO 1011,1 20
09.08.2018 08:00:00 16,0 13,5 4 2 - - N 1011,7 20
09.08.2018 07:00:00 15,1 13,3 4 2 7 4 N 1012,7 19
09.08.2018 06:00:00 14,0 12,1 4 2 7 4 N 1012,8 20
09.08.2018 05:00:00 14,4 11,7 4 2 - - N 1013,6 20
09.08.2018 04:00:00 14,6 11,4 4 2 7 4 N 1014,0 20
09.08.2018 03:00:00 14,6 12,0 4 2 7 4 N 1014,7 20
09.08.2018 02:00:00 14,8 11,9 7 4 - - O 1015,3 20
09.08.2018 01:00:00 15,8 12,8 4 2 7 4 N 1015,6 20
09.08.2018 00:00:00 15,0 12,0 7 4 7 4 OZO 1015,8 20
08.08.2018 23:00:00 16,8 11,4 4 2 - - N 1015,7 20
08.08.2018 22:00:00 17,8 12,4 4 2 7 4 N 1015,7 20
08.08.2018 21:00:00 19,3 12,1 7 4 11 6 NNO 1015,1 20
08.08.2018 20:00:00 21,7 10,2 7 4 - - WNW 1015,1 20
08.08.2018 19:00:00 22,2 9,6 14 8 25 14 W 1014,8 20
08.08.2018 18:00:00 22,2 9,9 14 8 29 16 WZW 1015,0 20
08.08.2018 17:00:00 21,9 11,0 18 10 - - W 1015,2 20
08.08.2018 16:00:00 22,4 10,3 22 12 36 19 WZW 1015,2 20
08.08.2018 15:00:00 21,9 11,4 18 10 36 19 ZW 1015,2 20

tt = temperatuur
td = dauwpunt
ff = windsnelheid
fx = windstoten
dd = windrichting
ppp = luchtdruk
vv = zicht

Weerstations in de omgeving